Location: Curicchi
(45.0167°N, 12.0500°E)
Time: 00:21:06
(UTC+00:00)

Daily predictions for brighter satellites

Satellite Brightness Start Highest point End
(mag) Time Altitude Azimuth Time Altitude Azimuth Time Altitude Azimuth
STARLINK-1268 3.7 00:04:28 46° NE 00:04:28 46° NE 00:06:46 10° ENE
STARLINK-1301 3.2 00:03:56 82° S 00:04:00 83° SE 00:07:52 10° ENE
STARLINK-1303 3.2 00:05:53 83° SE 00:05:53 83° SE 00:09:38 10° ENE
Cosmos 1570 Rocket 4.0 00:04:53 45° SSW 00:06:33 78° WNW 00:11:52 10° NNE
STARLINK-66 3.4 00:07:09 57° NNW 00:07:09 57° NNW 00:10:17 10° NE
Cosmos 1709 Rocket 3.9 00:05:05 40° SSW 00:07:28 79° W 00:13:41 10° N
Cosmos 1763 Rocket 4.1 00:05:57 33° WSW 00:07:48 47° WNW 00:12:42 10° N
Cosmos 1400 Rocket 3.6 00:03:49 10° N 00:07:50 47° ENE 00:09:10 34° SE
STARLINK-1316 3.4 00:09:23 55° NE 00:09:23 55° NE 00:11:57 10° NE
STARLINK-1312 3.2 00:09:13 83° SW 00:09:20 87° SSE 00:13:08 10° ENE
Cosmos 2227 Rocket 3.2 00:04:37 10° NW 00:09:26 29° WSW 00:10:10 28° WSW
STARLINK-1257 3.4 00:10:14 57° NE 00:10:14 57° NE 00:12:51 10° NE
STARLINK-1256 3.4 00:11:11 58° NE 00:11:11 58° NE 00:13:48 10° NE
STARLINK-58 3.6 00:11:42 47° ENE 00:11:42 47° ENE 00:14:07 10° ENE
STARLINK-1213 3.3 00:12:02 59° NE 00:12:02 59° NE 00:14:41 10° NE
STARLINK-1263 3.3 00:12:53 60° NNE 00:12:53 60° NNE 00:15:35 10° NE
STARLINK-1259 3.3 00:13:47 61° NNE 00:13:47 61° NNE 00:16:31 10° NE
STARLINK-1265 3.3 00:14:10 63° NNE 00:14:10 63° NNE 00:16:57 10° NE
Cosmos 2084 Rocket 3.4 00:09:29 10° NW 00:13:58 74° SW 00:14:58 52° SSE
STARLINK-1285 3.3 00:14:38 62° NNE 00:14:38 62° NNE 00:17:24 10° NE
SL-16 R/B 3.3 00:10:24 15° SE 00:15:23 50° ENE 00:21:19 10° N
STARLINK-1296 3.2 00:16:22 64° NNE 00:16:22 64° NNE 00:19:12 10° NE
Cosmos 1758 Rocket 3.7 00:15:28 50° SW 00:16:20 62° W 00:20:45 10° N
Cosmos 2298 Rocket 4.2 00:11:32 10° NNW 00:16:51 69° ENE 00:19:50 26° SE
STARLINK-1260 3.2 00:17:14 64° N 00:17:14 64° N 00:20:06 10° NE
STARLINK-1318 3.2 00:18:06 64° N 00:18:06 64° N 00:21:00 10° NE
STARLINK-75 3.5 00:18:02 50° NW 00:18:21 52° NNW 00:21:32 10° NE
STARLINK-1275 3.2 00:18:59 64° N 00:18:59 64° N 00:21:55 10° NE
STARLINK-48 3.6 00:19:05 55° SE 00:19:05 55° SE 00:22:50 10° ENE
STARLINK-1309 3.2 00:19:50 64° N 00:19:50 64° N 00:22:47 10° NE
STARLINK-1282 3.2 00:20:42 63° NNW 00:20:42 63° NNW 00:23:41 10° NE
IRAS Rocket 4.2 00:18:06 35° SSE 00:20:35 87° WSW 00:26:10 10° NNW
STARLINK-1280 4.5 00:21:06 35° SE 00:21:06 35° SE 00:24:56 10° ENE
STARLINK-1283 3.6 00:20:03 46° WSW 00:21:10 76° NNW 00:25:18 10° NE
STARLINK-1313 3.3 00:21:38 56° NW 00:21:42 57° NNW 00:24:47 10° NE
STARLINK-80 3.4 00:21:07 55° W 00:21:50 74° NNW 00:25:39 10° NE
STARLINK-1279 3.3 00:22:33 55° NW 00:22:38 56° NNW 00:25:43 10° NE
STARLINK-1298 3.2 00:23:16 61° NNW 00:23:16 61° NNW 00:26:20 10° NE
STARLINK-1293 3.2 00:24:10 60° NNW 00:24:11 60° NNW 00:27:17 10° NE
SL-16 R/B 3.3 00:22:44 23° SSE 00:25:09 33° ESE 00:30:10 10° NE
Cosmos 2208 Rocket 4.2 00:23:37 38° SW 00:25:35 65° WNW 00:30:57 10° NNE
STARLINK-1255 3.2 00:25:54 58° NW 00:25:59 59° NNW 00:29:05 10° NE
STARLINK-22 3.4 00:26:16 52° WNW 00:26:35 55° NNW 00:29:46 10° NE
STARLINK-1297 3.4 00:26:32 56° W 00:27:08 71° NNW 00:30:45 10° NE
STARLINK-1311 3.5 00:28:27 45° NW 00:28:35 46° NNW 00:31:28 10° NE
Cosmos 2285 Rocket 4.2 00:23:23 10° NNW 00:29:32 52° WSW 00:31:55 34° SSW
STARLINK-1286 4.4 00:29:54 36° SE 00:30:00 36° SE 00:33:50 10° ENE
MOZ.5/SAFIR/RUBIN 5/SL-8 3.9 00:29:16 31° SSE 00:31:24 71° ENE 00:36:03 10° N
CZ-2D R/B 2.7 00:27:32 10° NNE 00:32:35 47° E 00:35:02 27° SSE
USA 215 3.3 00:28:06 18° SSE 00:32:55 56° SW 00:39:22 10° WNW
STARLINK-1281 4.3 00:33:11 36° SE 00:33:21 37° SE 00:37:10 10° ENE
Cosmos-2242 3.3 00:29:36 10° NNW 00:33:43 48° W 00:34:24 44° SW
Meteor 2-10 Rocket 4.3 00:29:33 10° NNW 00:34:09 34° W 00:35:16 31° WSW
Cosmos 1953 Rocket 3.5 00:33:32 48° SSW 00:34:42 72° W 00:39:06 10° N
Cosmos 2221 3.8 00:32:28 10° N 00:36:33 38° ENE 00:39:28 17° SE
STARLINK-42 4.2 00:36:26 28° WNW 00:37:25 36° NNW 00:40:22 10° NE
BREEZE-M R/B 4.0 00:32:17 10° W 00:37:42 43° N 00:40:43 10° ENE
STARLINK-1310 4.2 00:37:58 39° SSE 00:38:18 40° SE 00:42:11 10° ENE
STARLINK-1029 2.8 00:39:04 81° NW 00:39:07 82° NNW 00:42:18 10° NE
STARLINK-34 3.1 00:40:02 57° WNW 00:40:16 60° NNW 00:43:19 10° NE
CZ-4C R/B 3.7 00:38:34 32° SSE 00:40:36 74° ENE 00:45:03 10° N
STARLINK-41 4.2 00:40:11 27° WNW 00:41:09 35° NNW 00:44:01 10° NE
STARLINK-60 3.5 00:38:12 10° NW 00:41:21 57° NNE 00:44:30 10° ESE
GP-B 3.0 00:36:57 10° N 00:41:25 87° E 00:42:59 40° S
STARLINK-1272 3.8 00:42:02 34° W 00:43:14 52° NNW 00:46:43 10° NE
STARLINK-1319 4.0 00:42:43 41° SSE 00:43:14 44° SE 00:47:11 10° ENE
Cosmos 540 Rocket 4.1 00:41:07 29° WSW 00:43:17 46° WNW 00:48:14 10° N
Cosmos 1315 Rocket 3.8 00:39:38 10° N 00:43:24 41° ENE 00:45:45 20° SE
Cosmos 1842 Rocket 4.1 00:39:10 10° N 00:43:34 55° ENE 00:46:04 24° SSE
STARLINK-62 3.3 00:43:45 50° WNW 00:44:08 56° NNW 00:47:09 10° NE
Cosmos 2360 Rocket 4.0 00:43:58 12° SE 00:47:33 22° E 00:51:45 10° NE
STARLINK-1277 4.0 00:47:31 43° S 00:48:12 48° SE 00:52:12 10° ENE
STARLINK-1307 4.0 00:46:48 29° W 00:48:25 52° NNW 00:52:04 10° NE
Helios 1B rocket 4.2 00:45:51 10° NNW 00:48:57 21° WNW 00:50:24 18° W
STARLINK-1290 4.1 00:50:11 26° W 00:51:56 50° NNW 00:55:34 10° NE
Cosmos 2058 4.3 00:50:48 19° SE 00:53:07 33° E 00:56:56 10° NNE
STARLINK-1276 3.9 00:52:19 43° S 00:53:11 52° SE 00:57:14 10° ENE
Cosmos 1980 Rocket 2.8 00:51:50 25° WSW 00:54:48 47° WNW 01:00:17 10° NNE
Cosmos 2074 Rocket 4.0 00:51:22 29° S 00:54:50 86° W 01:01:09 10° N
Shenzhou-11 Module 4.1 00:56:40 14° ESE 00:56:40 14° ESE 00:57:10 10° E
STARLINK-1305 3.8 00:57:04 42° SSW 00:58:08 57° SE 01:02:12 10° ENE
STARLINK-1306 3.7 00:57:24 42° SSW 00:58:34 61° SE 01:02:43 10° ENE
STARLINK-1317 4.4 00:56:33 20° W 00:58:57 46° NNW 01:02:44 10° NE
Cosmos 1455 4.2 00:57:59 10° NW 01:00:05 15° W 01:00:05 15° W
CZ-4B R/B 3.9 00:56:15 10° NNE 01:01:28 62° ESE 01:04:34 25° S
STARLINK-1274 4.3 01:00:55 20° W 01:02:59 40° NNW 01:06:22 10° NE
STARLINK-1262 3.7 01:01:53 40° SSW 01:03:08 62° SE 01:07:14 10° ENE
STARLINK-1291 4.5 01:04:15 18° W 01:06:42 41° NNW 01:10:15 10° NE
STARLINK-1300 3.6 01:06:40 38° SSW 01:08:05 67° SE 01:12:12 10° ENE
ADEOS II 3.0 01:05:40 10° NNE 01:10:39 41° E 01:14:39 15° SSE
Cosmos 2263 Rocket 2.1 01:06:19 10° NNW 01:11:52 65° WSW 01:15:58 18° S
STARLINK-1295 3.6 01:11:26 35° SW 01:13:02 73° SE 01:17:11 10° ENE
NOSS 2-1 (C) 2.8 01:12:04 43° SW 01:13:06 85° NW 01:16:41 10° NE
UNK 3.8 01:11:40 29° S 01:13:51 60° W 01:18:24 10° NNW
IRS-1D 4.0 01:08:47 10° NNE 01:13:58 56° E 01:17:31 19° S
STARLINK-29 3.7 01:10:59 10° NW 01:14:08 55° NNE 01:17:16 10° ESE
AQUA 3.8 01:10:52 10° NNE 01:15:40 82° ESE 01:18:24 26° S
STARLINK-64 3.5 01:14:12 30° WSW 01:15:47 66° NNW 01:19:22 10° NE
SL-4 R/B 2.2 01:10:58 10° WNW 01:15:49 78° SSW 01:20:27 10° SE
USA 229 DEB 3.8 01:10:27 10° NW 01:17:44 74° WSW 01:25:21 10° SSE
USA 229 3.8 01:10:34 10° NW 01:17:51 74° SW 01:25:28 10° SSE
NOSS 2-1 (D) 2.9 01:16:50 38° SW 01:18:00 75° NW 01:21:36 10° NE
STARLINK-1287 3.5 01:16:13 33° SW 01:18:01 79° SE 01:22:10 10° ENE
NOSS 3-1 (C) 4.1 01:11:05 10° NW 01:18:39 69° WSW 01:27:17 10° SSE
NPP 3.6 01:14:13 10° NNE 01:19:37 78° WNW 01:22:54 25° SSW
Cosmos 2184 Rocket 4.2 01:16:26 25° SSW 01:20:01 58° WNW 01:26:07 10° N
ARIANE 5 R/B 4.0 01:15:57 10° NE 01:20:20 30° E 01:24:40 10° SSE
CZ-4C R/B 4.3 01:18:42 10° WNW 01:22:59 22° NNW 01:27:51 10° NNE
Cosmos 1892 2.8 01:21:53 26° S 01:23:53 68° E 01:27:40 10° NNE
BREEZE-M DEB (TANK) 2.6 01:23:14 27° WNW 01:24:00 45° NNW 01:26:51 10° ENE
STARLINK-1299 3.7 01:24:05 25° WSW 01:26:30 81° NNW 01:30:47 10° NE
NOSS 3-1 (A) 4.1 01:19:13 10° NW 01:26:51 86° SW 01:35:35 10° SSE
STARLINK-1302 3.5 01:25:46 27° WSW 01:27:57 89° NW 01:32:07 10° ENE
Cosmos 1610 Rocket 4.5 01:24:10 22° SSW 01:28:17 74° W 01:34:30 10° N
BREEZE-M DEB (TANK) 2.9 01:26:40 10° WNW 01:28:52 33° NNE 01:31:24 10° E
Cosmos 1869 3.3 01:27:15 10° NNW 01:31:04 58° W 01:33:00 26° SSW
STARLINK-1273 3.6 01:30:32 24° WSW 01:32:55 83° NNW 01:37:05 10° ENE
Cosmos 2322 Rocket 2.2 01:29:42 23° SSW 01:33:20 87° WNW 01:39:00 10° NNE
In-Cosmos 22 Rocket 4.1 01:31:02 20° S 01:35:00 87° W 01:40:31 10° N
STARLINK-1288 3.7 01:35:19 22° WSW 01:37:54 78° NNW 01:42:04 10° NE
STARLINK-61 3.4 01:35:51 26° SW 01:37:59 84° SE 01:41:55 10° ENE
STARLINK-81 4.2 01:38:56 24° S 01:40:28 35° SE 01:43:49 10° ENE
Resurs 1-4 Rocket 2.7 01:36:26 10° N 01:41:27 44° WNW 01:44:54 19° SW
STARLINK-54 4.0 01:40:39 25° SSW 01:42:15 40° SE 01:45:39 10° ENE
Cosmos 1076 Rocket 3.5 01:39:51 22° SSW 01:42:39 75° W 01:47:02 10° N
STARLINK-1308 3.7 01:40:08 20° WSW 01:42:56 72° NNW 01:47:05 10° NE
STARLINK-77 4.1 01:42:03 23° S 01:43:43 37° SE 01:47:05 10° ENE
Cosmos 2151 3.8 01:40:31 11° SSE 01:44:26 48° E 01:48:35 10° NNE
Cosmos 1125 Rocket 4.1 01:40:59 10° NW 01:45:42 36° WSW 01:48:54 18° SSW
H-2A R/B 3.8 01:42:28 10° SE 01:46:30 35° ENE 01:50:36 10° N
STARLINK-79 4.0 01:46:45 23° SSW 01:48:34 41° SE 01:52:01 10° ENE
STARLINK-52 2.8 01:46:17 10° WNW 01:49:30 87° SSW 01:52:42 10° SE
Cosmos 962 Rocket 4.5 01:44:45 15° S 01:49:57 84° W 01:56:13 10° N
STARLINK-78 3.9 01:48:20 23° SSW 01:50:12 43° SE 01:53:41 10° ENE
STARLINK-57 3.8 01:49:58 23° SSW 01:51:54 47° SE 01:55:23 10° ENE
Cosmos 1408 2.5 01:49:31 19° S 01:52:07 90° ENE 01:55:48 10° N
STARLINK-1304 3.9 01:49:41 16° WSW 01:52:53 63° NNW 01:57:01 10° NE
STARLINK-49 3.8 01:51:26 22° SSW 01:53:26 45° SE 01:56:54 10° ENE
Cosmos 2154 Rocket 4.4 01:49:51 18° SW 01:54:24 50° WNW 02:00:26 10° N
STARLINK-27 3.8 01:53:02 21° SSW 01:55:05 47° SE 01:58:36 10° ENE
STARLINK-1023 4.4 01:52:43 19° SSW 01:55:15 39° SE 01:59:07 10° ENE
GEOS 3 Rocket 3.7 01:50:47 10° SSE 01:55:51 57° SW 02:01:04 10° NW
STARLINK-74 3.7 01:54:35 21° SSW 01:56:42 48° SE 02:00:13 10° ENE
STARLINK-39 3.7 01:56:10 21° SSW 01:58:20 50° SE 02:01:52 10° ENE
Cosmos 1825 2.3 01:55:27 13° S 01:58:41 70° E 02:02:27 10° NNE
STARLINK-1278 4.3 01:55:21 12° WSW 01:59:07 54° NNW 02:03:18 10° NE
Cosmos 2237 4.3 01:54:31 16° SSW 01:59:11 84° ESE 02:04:57 10° NNE
SL-16 R/B 3.4 01:55:29 17° SW 01:59:13 29° W 02:04:32 10° NW
STARLINK-31 3.6 01:57:45 20° SSW 01:59:59 53° SE 02:03:32 10° ENE
STARLINK-1007 4.3 01:57:32 18° SSW 02:00:15 42° SE 02:04:11 10° ENE
SL-08 R/B 3.2 01:56:18 10° SSE 02:00:55 84° WSW 02:05:33 10° NNW
STARLINK-1280 4.3 01:57:08 12° WSW 02:00:57 53° NNW 02:05:08 10° NE
STARLINK-69 3.4 01:59:20 20° SW 02:01:37 59° SE 02:05:10 10° ENE
STARLINK-21 3.5 02:00:55 19° SW 02:03:16 57° SE 02:06:49 10° ENE
STARLINK-45 3.4 02:02:35 19° SW 02:05:01 65° SE 02:08:38 10° ENE
IRS-P3 4.1 01:59:41 10° NNE 02:05:02 76° WNW 02:09:52 13° SSW
STARLINK-1048 4.2 02:02:18 17° SSW 02:05:12 46° SE 02:09:11 10° ENE
Cosmos 1844 Rocket 2.9 02:00:50 10° NNW 02:06:28 78° ENE 02:12:02 10° SSE
NOSS 2-1 (E) 4.5 02:04:58 12° W 02:07:39 29° NW 02:10:58 10° NNE
STARLINK-76 3.4 02:05:36 18° SW 02:08:08 63° SE 02:11:44 10° ENE
STARLINK-70 3.4 02:05:59 18° SW 02:08:36 67° SE 02:12:14 10° ENE
SL-16 R/B 3.0 02:04:36 14° WSW 02:09:08 41° NW 02:14:31 10° NNE
STARLINK-1286 4.3 02:05:37 10° WSW 02:09:37 50° NNW 02:13:42 10° NE
STARLINK-23 3.4 02:07:11 18° SW 02:09:46 65° SE 02:13:22 10° ENE
STARLINK-1049 4.1 02:07:06 16° SSW 02:10:10 50° SE 02:14:11 10° ENE
STARLINK-32 3.3 02:08:37 17° SW 02:11:13 67° SE 02:14:47 10° ENE
CZ-2D R/B 3.5 02:08:10 10° N 02:12:21 25° WNW 02:16:21 11° WSW
STARLINK-1281 4.3 02:08:49 10° W 02:12:51 50° NNW 02:16:54 10° NE
STARLINK-40 3.3 02:10:18 17° SW 02:13:00 69° SE 02:16:38 10° ENE
COSMOS 2428 4.0 02:08:32 10° S 02:13:37 35° ESE 02:18:42 10° NE
Cosmos 2221 4.1 02:10:38 10° NW 02:13:51 20° W 02:16:17 13° SW
CZ-4C R/B 4.0 02:10:57 10° SSE 02:14:29 50° ENE 02:18:00 10° N
STARLINK-44 3.3 02:11:49 16° SW 02:14:35 72° SE 02:18:12 10° ENE
STARLINK-1051 4.0 02:11:51 15° SW 02:15:06 55° SE 02:19:10 10° ENE
Cosmos 773 Rocket 4.0 02:11:02 12° SSW 02:15:51 85° WNW 02:21:12 10° NNE
STARLINK-37 3.2 02:13:33 15° SW 02:16:25 79° SE 02:20:03 10° ENE
STARLINK-60 4.3 02:14:48 10° W 02:17:11 19° SW 02:19:33 10° S
STARLINK-36 3.3 02:14:56 15° SW 02:17:50 76° SE 02:21:28 10° ENE
STARLINK-1310 4.4 02:13:51 10° W 02:17:51 47° NNW 02:21:53 10° NE
FALCON 9 DEB 3.0 02:15:22 10° WNW 02:18:49 78° SW 02:22:16 10° SE
STARLINK-1353 4.4 02:15:33 10° NW 02:19:29 53° NNE 02:23:25 10° ESE
STARLINK-63 3.2 02:18:10 14° SW 02:21:12 84° SE 02:24:50 10° ENE
STARLINK-35 3.2 02:19:32 14° SW 02:22:33 83° SSE 02:26:09 10° ENE
STARLINK-1375 4.3 02:19:55 10° NW 02:23:53 56° NNE 02:27:50 10° ESE
STARLINK-51 3.2 02:21:14 13° SW 02:24:22 86° SE 02:27:59 10° ENE
Cosmos 2366 rocket 4.0 02:18:32 10° S 02:24:47 85° W 02:31:09 10° N
STARLINK-1028 3.8 02:21:25 13° SW 02:25:02 65° SE 02:29:09 10° ENE
STARLINK-30 3.2 02:22:49 13° SW 02:26:01 88° SSE 02:29:40 10° ENE
STARLINK-72 3.2 02:24:13 12° SW 02:27:25 90° NNW 02:31:01 10° ENE
STARLINK-1350 4.2 02:24:15 10° NW 02:28:14 59° NNE 02:32:12 10° ESE
Shenzhou-11 Module 1.8 02:26:47 10° W 02:29:06 42° S 02:31:26 10° ESE
STARLINK-1021 3.7 02:26:14 12° SW 02:30:02 71° SE 02:34:10 10° ENE
Cosmos 2058 4.5 02:27:00 11° WSW 02:30:07 22° WNW 02:33:25 10° NNW
STARLINK-59 3.2 02:27:25 11° WSW 02:30:46 82° NNW 02:34:21 10° NE
Cosmos 2360 Rocket 2.5 02:25:44 11° SW 02:31:04 59° WNW 02:36:39 10° NNE
Cosmos 1933 3.6 02:27:17 10° N 02:31:20 71° E 02:35:20 10° SSE
STARLINK-1010 3.7 02:28:17 11° SW 02:32:17 77° SE 02:36:32 10° ENE
STARLINK-1352 4.1 02:28:25 10° NW 02:32:24 63° NNE 02:36:23 10° ESE
STARLINK-56 3.3 02:29:04 11° WSW 02:32:32 83° NNW 02:36:11 10° ENE
STARLINK-73 3.3 02:30:38 11° WSW 02:34:09 81° NNW 02:37:48 10° NE
Cosmos 1328 Rocket 3.6 02:30:28 10° N 02:34:53 87° ENE 02:39:15 10° S
STARLINK-1019 3.7 02:30:59 11° SW 02:34:58 77° SE 02:39:07 10° ENE
STARLINK-38 3.3 02:32:12 10° WSW 02:35:47 78° NNW 02:39:26 10° NE
STARLINK-1368 4.0 02:33:06 10° NW 02:37:07 67° NNE 02:41:08 10° ESE
STARLINK-65 3.4 02:33:49 10° WSW 02:37:26 76° NNW 02:41:05 10° NE
STARLINK-68 3.4 02:34:30 10° WSW 02:38:08 71° NNW 02:41:47 10° NE
STARLINK-53 3.4 02:35:33 10° WSW 02:39:09 71° NNW 02:42:47 10° NE
STARLINK-1012 3.6 02:35:49 10° SW 02:39:57 83° SE 02:44:07 10° ENE
BREEZE-M DEB (TANK) 4.4 02:36:05 10° SSW 02:40:12 23° SSE 02:42:44 10° E
STARLINK-50 3.5 02:37:37 10° WSW 02:41:25 76° NNW 02:45:14 10° NE
STARLINK-1369 3.9 02:37:32 10° NW 02:41:34 72° NNE 02:45:35 10° ESE
Cosmos 2333 Rocket 2.5 02:38:53 10° SSW 02:44:29 72° ESE 02:50:10 10° NNE
Meteor 1-28 Rocket 3.9 02:42:06 10° SSW 02:45:33 35° W 02:49:01 10° NNW
STARLINK-1372 3.7 02:41:43 10° NW 02:45:43 76° NNE 02:49:40 10° ESE
STARLINK-71 3.7 02:42:10 10° WSW 02:46:11 70° NNW 02:50:13 10° NE
Landsat 5 3.6 02:42:14 10° S 02:46:45 75° WSW 02:51:12 10° NNW
Cosmos 2219 Rocket 2.4 02:43:02 10° SSW 02:48:36 73° ESE 02:54:11 10° NNE
STARLINK-1026 3.7 02:45:45 10° WSW 02:49:54 85° NNW 02:54:04 10° ENE
Cosmos 2322 3.8 02:44:19 10° SSW 02:50:01 75° WNW 02:55:47 10° NNE
Cosmos 1727 Rocket 4.0 02:43:55 10° NNW 02:50:05 74° W 02:56:13 10° S
ADEOS II 3.2 02:45:42 10° N 02:50:10 29° WNW 02:54:37 10° WSW
STARLINK-1378 3.7 02:46:26 10° NW 02:50:28 82° NE 02:54:29 10° ESE
